Hourly Data Report for January 07, 2019

TORONTO CITY
ONTARIO
Current Station Operator: ECCC - MSC

43°40'00.000" N
79°24'00.000" W
112.50 m
6158355
71508
XTO

Download Data

Hourly Data (January 2019)
Hourly Data Report for January 7, 2019
TIME
LST
Temp Definition
°C
Dew Point Definition
°C
Rel Hum Definition
%
Precip. Amount Definition
mm

Wind Dir Definition
10's deg

Wind Spd Definition
km/h
Visibility Definition
km
Stn Press Definition
kPa
Hmdx Definition


Wind Chill Definition


Weather Definition


00:00 -5.9 -13.5 55 0.0 LegendMM LegendMM   101.81     LegendNANA
01:00 -6.8 -13.9 57 0.0 LegendMM LegendMM   101.82     LegendNANA
02:00 -7.5 -14.0 59 0.0 LegendMM LegendMM   101.83     LegendNANA
03:00 -7.4 -13.2 63 0.0 LegendMM LegendMM   101.86     LegendNANA
04:00 -7.1 -12.5 65 0.0 LegendMM LegendMM   101.79     LegendNANA
05:00 -5.9 -9.4 76 0.0 LegendMM LegendMM   101.77     LegendNANA
06:00 -5.7 -9.0 78 0.0 LegendMM LegendMM   101.79     LegendNANA
07:00 -4.6 -8.4 75 0.0 LegendMM LegendMM   101.77     LegendNANA
08:00 -3.7 -8.0 72 0.0 LegendMM LegendMM   101.69     LegendNANA
09:00 -3.2 -7.8 71 0.0 LegendMM LegendMM   101.70     LegendNANA
10:00 -3.2 -7.3 73 0.0 LegendMM LegendMM   101.55     LegendNANA
11:00 -3.2 -8.8 65 0.0 LegendMM LegendMM   101.48     LegendNANA
12:00 -3.1 -10.7 56 0.0 LegendMM LegendMM   101.23     LegendNANA
13:00 -2.8 -10.9 54 0.0 LegendMM LegendMM   100.97     LegendNANA
14:00 -2.4 -9.9 56 0.0 LegendMM LegendMM   100.64     LegendNANA
15:00 -1.8 -9.0 58 0.0 LegendMM LegendMM   100.61     LegendNANA
16:00 -1.5 -8.1 61 0.0 LegendMM LegendMM   100.29     LegendNANA
17:00 -1.2 -7.9 60 0.0 LegendMM LegendMM   100.10     LegendNANA
18:00 -0.5 -6.1 66 0.0 LegendMM LegendMM   99.81     LegendNANA
19:00 0.5 -4.1 71 0.0 LegendMM LegendMM   99.70     LegendNANA
20:00 1.1 -3.3 73 0.0 LegendMM LegendMM   99.51     LegendNANA
21:00 1.4 -1.4 82 0.7 LegendMM LegendMM   99.41     LegendNANA
22:00 1.8 -0.6 84 0.8 LegendMM LegendMM   99.25     LegendNANA
23:00 2.1 0.3 88 0.4 LegendMM LegendMM   99.15     LegendNANA

Notes on Data Quality.

Legend

  • E = Estimated
  • M = Missing
  • NA = Not Available*
  • [empty] = Indicates an unobserved value
Date modified: